Theta_e
336 335 336 335 335 335 336 335 337 339 340 339 341 340 342 345 344 342 343 343 344 344 344 340 339 337 337 340 342 345 347 347 344 343 343 339 338 337 336 334 332 331 333 333
335 336 335 334 334 334 335 336 336 337 340 340 340 344 342 342 342 344 343 344 345 345 344 341 341 338 337 339 341 342 343 345 344 341 338 335 337 337 336 334 332 332 332 333
335 336 334 333 334 335 335 335 337 334 336 341 338 346 345 343 343 342 341 344 344 342 342 342 343 342 339 340 341 341 342 344 344 338 337 338 336 336 334 334 332 332 332 333
335 335 333 333 334 334 335 335 335 335 337 339 343 349 347 345 344 342 343 342 341 341 342 343 343 345 344 341 340 341 342 343 342 340 337 337 334 335 335 333 331 333 334 333
333 334 333 334 334 334 334 334 333 335 337 338 346 345 351 344 343 342 341 342 342 341 340 339 340 342 344 344 341 341 342 344 342 342 341 337 336 335 336 334 333 334 333 335
333 333 332 332 333 333 333 335 343 341 342 344 343 343 349 348 338 340 339 336 335 336 338 338 339 341 344 346 344 341 342 343 343 342 341 338 337 337 334 335 333 334 334 335
332 333 333 331 333 337 337 338 347 352 354 347 343 342 350 344 338 335 335 336 337 337 337 338 340 339 339 339 347 345 341 342 342 341 340 340 339 338 336 336 336 335 334 334
334 334 332 332 332 334 334 338 339 344 339 341 342 347 345 341 339 336 336 338 338 338 338 338 340 340 339 341 342 343 342 342 341 341 340 340 339 339 336 337 337 336 335 333
334 333 332 332 332 333 335 336 338 339 339 341 343 341 341 339 339 338 338 340 339 340 339 337 337 338 336 337 341 340 341 342 343 343 342 341 340 341 338 339 338 337 338 337
334 336 333 333 332 332 335 335 335 343 351 347 341 347 350 344 341 339 340 340 340 339 337 335 335 335 334 333 335 339 339 342 344 345 343 342 342 341 340 339 338 338 338 337
332 335 334 332 333 334 335 338 342 337 338 344 345 345 343 344 341 341 341 340 340 339 336 332 333 334 335 334 332 339 340 340 343 343 344 343 343 342 340 340 340 337 336 339
330 334 335 333 336 334 332 335 338 340 344 346 344 345 342 343 343 341 341 342 341 338 336 333 332 335 336 336 334 336 340 341 341 341 340 340 341 340 339 339 338 338 337 338
334 335 338 335 335 340 338 337 337 338 340 339 338 343 342 344 344 343 342 341 340 336 336 334 334 335 335 336 335 337 340 340 340 339 339 340 339 339 339 340 339 338 337 338
338 336 338 334 334 336 338 333 335 335 338 337 336 335 345 345 346 345 344 341 338 334 335 335 336 336 335 334 335 339 340 340 339 339 337 336 336 337 338 339 337 337 337 337
338 342 335 334 332 332 332 332 333 335 336 338 338 338 336 344 346 346 344 341 334 335 335 335 336 338 335 333 334 339 340 339 338 336 335 335 335 336 336 338 338 338 338 337
343 342 338 334 332 335 335 334 334 334 335 337 338 337 341 341 342 345 344 339 336 335 335 334 335 337 335 333 335 338 339 339 337 336 335 334 331 332 332 334 337 338 336 335
346 342 342 338 335 340 338 336 337 337 336 337 338 336 346 348 344 344 341 338 337 336 335 334 336 336 334 334 335 336 336 337 336 335 331 328 330 326 327 328 329 330 332 335
343 342 338 339 339 347 338 338 336 334 335 336 335 336 340 342 344 342 338 336 336 335 334 334 335 333 332 334 334 333 335 334 334 333 329 326 326 326 323 323 324 325 325 327
344 343 340 342 340 338 339 338 337 336 337 336 339 338 340 342 342 342 339 337 335 335 334 335 335 334 335 335 333 333 334 333 333 330 326 325 323 323 323 323 324 325 325 325
345 347 344 341 346 342 334 336 337 338 341 337 337 337 340 343 345 342 340 338 336 336 335 335 334 335 336 335 335 334 334 332 332 329 326 326 324 324 322 323 324 325 325 324
343 343 341 338 337 337 336 338 340 341 352 345 339 339 342 344 342 343 339 338 336 336 336 337 336 336 336 334 335 335 333 331 332 329 327 326 325 323 321 324 324 325 325 325
340 341 338 337 337 336 339 338 340 352 350 348 345 344 343 343 341 342 340 340 339 337 336 337 336 338 337 335 335 334 333 332 332 329 328 326 323 322 323 324 325 324 325 325
340 338 339 339 340 339 337 341 342 344 346 346 348 347 345 343 341 341 341 340 340 339 337 335 336 336 337 335 334 333 332 332 331 330 330 326 323 323 323 325 325 325 323 322
337 340 338 337 336 336 336 337 341 345 346 346 345 347 345 346 342 341 341 340 340 339 339 337 337 337 336 334 334 334 333 332 331 331 330 327 324 324 324 325 324 323 323 322
338 342 342 340 339 338 335 343 341 339 340 341 344 345 343 342 343 341 340 339 339 339 338 339 339 338 337 332 334 333 332 332 331 330 329 327 326 324 324 325 324 322 322 317
336 337 337 337 344 343 342 341 337 336 337 340 339 340 341 340 341 341 340 337 337 338 338 340 340 339 336 331 333 333 332 331 330 331 330 327 324 323 324 322 322 320 320 313
Wind_Speed
17 11 7 10 8 11 11 11 12 14 8 8 7 7 8 13 8 7 8 8 8 4 8 7 4 2 4 4 5 10 14 16 18 18 18 15 12 11 10 13 12 13 12 11
9 13 2 5 8 10 15 17 9 3 6 7 14 15 12 7 5 7 5 7 8 7 7 7 5 2 2 5 6 9 12 15 16 15 14 12 11 9 8 12 12 14 13 12
15 7 5 8 13 15 14 8 14 16 10 18 7 3 4 10 6 5 6 4 4 1 2 9 9 6 5 7 9 11 13 14 16 13 12 8 6 6 8 12 12 14 15 14
14 12 4 11 16 15 13 10 16 20 13 9 13 6 4 9 5 7 9 9 6 4 4 2 4 9 8 7 9 11 13 13 14 14 12 12 12 9 9 10 13 14 14 14
15 11 6 12 10 12 16 15 18 18 15 16 10 10 11 29 7 6 5 6 5 3 3 3 5 5 3 5 7 9 11 12 12 13 13 12 13 11 9 11 11 9 9 12
14 15 5 15 6 9 10 13 18 16 14 6 11 13 8 6 9 8 8 8 4 2 4 2 1 0 5 8 6 8 11 12 13 12 12 13 12 12 9 10 12 12 13 13
18 18 10 3 14 9 8 15 3 4 8 4 17 11 8 21 8 8 6 9 6 6 8 11 15 14 12 17 5 6 10 11 10 10 12 12 12 12 12 13 14 13 13 11
7 11 9 7 9 11 14 9 9 18 10 7 11 5 11 12 10 6 6 6 6 9 11 10 11 13 14 12 11 6 6 8 8 9 11 12 12 12 13 15 15 14 13 17
4 8 7 2 5 4 7 9 11 12 17 12 2 3 7 12 11 7 6 7 6 7 7 7 9 11 11 9 9 9 5 4 6 8 10 12 11 12 13 10 11 14 13 12
4 9 2 8 6 12 10 11 11 4 5 14 7 12 3 24 13 8 8 7 5 4 5 8 9 10 12 14 10 10 8 7 6 6 6 8 11 11 10 11 12 14 13 13
11 7 13 4 13 8 5 4 11 6 8 11 12 3 14 26 8 7 6 5 4 4 10 7 8 11 12 14 15 11 9 6 6 5 6 6 7 9 10 9 12 11 15 13
13 6 11 16 6 6 8 11 11 9 3 8 9 5 10 6 4 7 6 5 7 7 9 9 9 10 10 13 15 12 9 9 8 7 7 6 7 9 9 8 10 11 10 12
6 7 9 15 11 15 14 9 3 6 10 14 13 4 11 8 7 6 5 6 4 4 10 7 10 9 11 12 12 11 10 8 7 7 8 6 8 11 8 9 9 12 10 10
4 8 8 13 6 9 11 8 10 5 8 14 15 6 9 10 9 6 3 2 7 5 7 6 7 10 12 12 11 9 8 9 9 8 10 10 10 11 10 7 6 8 8 9
5 10 14 13 13 10 12 14 11 9 11 13 16 19 16 7 8 7 5 2 1 1 4 6 7 7 12 12 11 8 7 8 8 9 6 6 8 10 11 10 6 4 4 4
5 8 9 13 16 11 14 14 13 14 14 15 13 17 13 4 4 6 6 2 3 5 5 6 7 8 10 10 9 7 7 8 9 9 9 10 9 8 9 11 9 6 3 1
6 9 7 13 11 11 10 11 15 10 13 16 13 15 13 20 7 8 4 2 1 3 4 5 5 6 6 7 4 6 7 7 7 8 8 7 5 8 9 9 9 9 7 4
7 8 10 11 8 14 4 6 6 8 13 15 16 12 7 4 7 5 4 2 3 1 3 5 6 5 4 5 6 7 7 6 7 6 6 5 6 6 7 9 9 9 8 7
8 8 11 11 12 12 5 2 4 9 12 14 9 8 4 4 2 7 6 5 2 1 1 1 3 3 2 4 5 6 7 6 7 5 5 6 6 7 8 8 8 8 8 8
9 9 10 13 6 12 8 7 7 5 13 8 4 5 5 5 8 5 11 7 5 4 3 2 0 1 1 3 3 6 5 6 4 3 5 7 6 6 8 8 9 9 9 11
11 10 15 13 11 10 6 8 2 10 4 12 5 3 5 8 6 4 4 4 3 5 6 5 4 3 1 3 4 6 6 7 2 5 8 7 6 7 7 7 9 9 9 10
7 11 11 11 13 15 8 2 4 6 7 12 10 7 7 8 9 5 6 4 6 6 8 9 7 7 4 5 6 8 7 6 7 8 7 7 6 8 7 6 8 8 7 10
11 11 9 10 6 2 3 6 8 10 9 11 9 11 11 9 9 10 9 9 8 10 10 11 10 9 8 8 8 7 7 6 8 8 9 8 7 6 6 7 7 11 9 9
11 7 7 10 13 13 8 8 6 7 9 11 11 10 9 12 13 12 11 10 10 14 14 14 12 11 10 10 8 6 7 7 8 10 10 9 8 6 7 9 10 10 10 11
7 3 7 10 13 15 17 6 2 9 10 10 9 11 13 13 14 13 12 11 12 15 17 16 15 14 12 11 10 8 8 7 6 10 9 12 12 5 8 13 6 10 1 1
12 15 12 13 7 3 10 9 9 11 13 10 9 11 12 12 13 15 14 16 17 17 18 17 15 14 14 14 13 11 9 7 5 4 10 14 11 11 14 7 9 6 7 7
Wind_Direction
228 284 256 18 334 328 307 306 19 327 96 300 61 312 99 168 173 179 182 173 202 221 135 160 168 112 93 112 154 171 183 190 189 195 200 206 207 214 224 224 225 222 224 230
253 250 59 329 299 290 287 302 332 243 347 295 354 43 14 160 153 170 189 179 195 193 177 191 192 160 145 160 174 184 192 194 199 203 212 215 214 210 225 222 217 225 228 230
266 245 81 279 288 285 298 346 316 317 311 73 261 215 263 120 182 110 125 195 161 239 232 187 204 224 183 187 191 193 197 196 202 213 204 199 195 207 231 227 217 222 227 227
259 275 350 283 281 295 294 347 313 300 290 302 228 117 178 268 146 230 175 162 133 125 181 194 246 214 213 229 207 203 199 200 206 212 207 211 222 226 229 216 223 217 211 224
262 253 266 268 298 336 302 321 301 308 291 284 22 298 57 326 143 132 115 119 121 168 98 349 343 359 277 201 222 219 210 205 211 213 230 218 240 245 242 259 235 212 223 225
264 285 254 281 334 305 306 279 41 351 351 307 207 251 140 170 134 117 109 93 115 77 140 359 51 187 220 195 214 224 217 218 217 220 226 234 250 254 247 249 239 232 223 216
239 238 226 256 259 203 256 273 125 258 255 167 281 338 160 222 106 103 118 111 92 9 41 24 23 4 7 7 168 252 225 225 228 232 237 236 243 251 248 258 238 247 232 215
254 237 178 187 274 334 306 337 303 311 330 348 163 204 232 129 106 141 145 108 53 29 30 28 42 12 17 8 6 328 251 239 239 246 251 245 243 246 244 243 245 236 240 239
254 218 133 255 274 284 336 284 336 310 315 283 102 191 61 129 121 172 112 83 64 59 36 24 61 28 5 6 18 353 326 291 252 266 260 250 246 238 257 264 237 247 251 263
285 292 254 118 264 233 259 308 285 93 227 273 182 94 163 301 153 132 129 111 86 33 48 27 38 50 10 7 27 21 355 6 342 351 324 282 253 238 251 252 237 242 242 247
240 252 282 175 227 285 254 253 261 293 317 11 346 324 195 210 185 125 117 99 93 20 28 22 40 25 21 11 8 35 1 8 31 2 301 292 285 263 256 248 251 249 237 243
225 241 258 261 79 277 281 298 327 306 2 170 192 255 126 342 161 150 123 125 50 3 30 20 16 24 32 11 6 13 5 22 5 339 346 326 314 298 280 258 253 239 236 240
143 219 248 243 224 360 286 274 273 294 292 279 295 32 195 164 156 169 136 108 168 5 52 18 355 19 15 15 11 7 23 16 358 345 337 3 325 315 304 280 254 233 242 256
337 273 260 292 337 219 230 253 242 281 289 309 311 321 126 197 170 152 177 124 44 359 44 14 347 9 360 18 8 15 14 360 1 349 5 7 353 342 336 327 270 240 246 258
228 252 258 252 282 308 288 292 297 246 261 288 309 305 309 164 173 182 145 113 20 14 26 7 6 4 356 9 356 25 6 5 352 354 349 357 360 357 1 360 339 312 298 282
200 264 277 291 287 242 271 284 285 276 276 275 298 288 3 154 196 151 191 130 277 36 9 358 9 8 7 359 357 12 358 360 348 348 341 356 356 14 18 16 35 30 24 331
221 272 258 271 297 322 273 280 284 308 311 316 290 289 153 185 235 183 189 181 6 7 356 359 359 19 15 343 349 349 351 341 343 346 346 10 10 19 18 24 22 18 16 349
243 264 279 279 250 246 244 230 303 316 300 286 283 276 310 275 185 225 136 38 48 329 348 2 14 16 12 349 345 334 337 322 334 339 345 357 355 5 7 8 7 360 351 341
244 259 274 266 263 265 311 293 347 331 304 309 258 284 272 232 346 240 211 143 156 80 345 331 31 32 9 330 345 326 316 337 297 4 326 321 349 346 347 351 339 329 328 325
226 251 266 267 322 282 323 63 28 329 272 343 150 257 239 200 253 31 128 159 162 178 228 276 105 69 250 302 311 301 317 290 310 297 291 314 329 330 330 330 322 316 314 305
204 227 238 239 262 285 39 44 30 254 27 334 328 290 238 234 273 124 162 161 177 209 216 215 223 250 277 269 266 272 284 283 317 270 273 289 306 313 303 319 319 316 315 322
229 201 233 247 268 262 41 336 296 14 325 328 326 323 286 247 255 190 229 213 210 231 226 206 240 231 221 231 238 261 278 281 263 255 273 284 292 302 323 316 316 316 301 293
236 268 303 304 341 321 311 297 292 295 291 302 311 309 294 271 258 256 225 234 241 244 243 244 238 230 224 230 240 265 281 275 274 270 274 277 289 296 308 298 290 290 278 298
232 207 241 271 275 284 327 311 345 334 318 303 273 272 281 273 269 260 259 238 241 245 240 241 237 233 228 222 231 247 278 286 283 276 273 275 282 266 282 304 300 316 332 349
294 103 263 266 271 280 262 81 5 327 307 310 288 261 269 275 264 267 271 261 251 254 252 235 238 230 229 219 213 220 234 243 266 276 280 265 266 237 287 263 303 303 39 277
257 259 265 268 360 286 293 5 315 310 303 300 309 306 292 277 270 269 268 274 267 259 250 245 227 233 227 223 216 224 215 223 228 256 317 342 353 308 298 328 291 242 230 221